Location: ??????
(38.0131°N, 23.7723°E)
Time: 19:06:21
(UTC+00:00)

Okean-O - Pass Details

Date: 22 May 2022
Orbit: 638 x 640 km, 98.1° (Epoch: 28 June)

Event Time Altitude Azimuth Distance (km) Brightness Sun altitude
Rises 18:45:13 0° 192° (SSW) 2,928 5.8 -12.5°
Reaches altitude 10° 18:47:40 10° 203° (SSW) 2,024 5.0 -12.9°
Maximum altitude 18:51:28 28° 263° (W) 1,192 4.5 -13.5°
Drops below altitude 10° 18:55:19 10° 323° (NW) 2,037 6.5 -14.1°
Sets 18:57:47 0° 335° (NNW) 2,950 7.3 -14.4°
